Showing default

CHECKMATE 5, 56163

Orbit data source: Space-Track

CHECKMATE 5, 56163 is a payload satellite owned by SDA (US) in LEO that was launched on Sun, 02 Apr 2023 UTC via an FALCON 9 launch vehicle from the Air Force Western Test Range (AFWTR). Payloads include a variety of satellites, spacecraft, and rockets equipped with specific instruments for various scientific and technological missions. These include communications satellites like Starlink; space stations such as the ISS; scientific satellites like the Hubble; Earth observation satellites from companies like Planet Labs, Umbra, and HawkEye 360; GPS; miniature CubeSats for education and research; and military/defense satellites.

Loading next visibility...
CHECKMATE 5 details
Identifier
56163, 2023-050B
Orbit
LEO
Last TLE update13 hours ago
Origin
Flag of USSDA (US)
ManufacturerYork Space Sys
MissionOperational Defense Communications
Bus & MotorS-CLASS, Unknown motor
Mass~300 kg wet, ~300 kg dry
Launch date (UTC)
2023-04-02 (2 years ago)
Launch vehicle
FALCON 9
Launch site
Air Force Western Test Range (AFWTR)
Object type
Payload
Rocket body
Debris
Shape & HBRBox + 1 Pan, 2 m
Radar Cross Section0.945 m², Large (>1 m²)

Expand to show TLE details & history

TLE from 13 hours ago
0 CHECKMATE 5
1 56163U 23050B   25015.05424744  .00000132  00000-0  10693-3 0  9992
2 56163  80.9992 208.5062 0005746 276.0561  83.9940 13.84855907 90442
Epoch: 2025-01-15T01:18Z
Definitive object data (Epoch: 2025-01-15T01:18:06.978Z)
Latitude-0.00006°
Longitude74.22502°
Altitude949.133 km
Speed7.377 km/s
True Right ascension13h 54m 01s
True Declination0° 00' 00"
Sunlit
Object was in daylight at TLE epoch
Visualization TLE readout
Latitude-76.28387°
Longitude33.47473°
Altitude969.995 km
Speed7.368 km/s
Apparent Right ascension04h 51m 26s
Apparent Declination-68° 23' 53"
Sunlit
Object is in daylight
Visualization observer readout
Local Sidereal Time15:28:11
Azimuth194.882° SSW
Elevation-59.377°
Doppler factor1
Orbital elements
Apogee altitude948.141 km
Perigee altitude939.726 km
Semi-major axis7,322.071 km
Eccentricity0.0005746
Inclination80.9992°
RAAN208.5062°
Arg. of periapsis276.0561°
True anomaly84.05949°
Mean anomaly83.994°
Eccentric anomaly84.02674°
Mean motion3.46412 °/min
BSTAR0.00010693
Orbital period103.92 mins
Loading maneuver chart data...
Loading historical data...
Loading historical data...
Loading historical data...
Loading historical data...
Loading historical data...
Loading historical data...
Loading historical data...

CHECKMATE 5 Visibility forecast

Observer location: undefined°, undefined

Span
Click to sort rows by Start time (UTC) header in descending order
Start Az.
Max El. time (UTC)
Max El. Az.
Max El.
End time (UTC)
End Az.
5 mins2025-01-15 15:21:26.028Z271.765° WNW2025-01-15 15:23:26.028Z292.095° WNW13.528°2025-01-15 15:26:26.028Z322.931° NNW
10 mins2025-01-16 00:26:26.028Z354.161° N2025-01-16 00:30:26.028Z30.909° NE44.055°2025-01-16 00:36:26.028Z167.454° S
4 mins2025-01-16 02:13:26.028Z293.759° NW2025-01-16 02:15:26.028Z272.878° WNW13.014°2025-01-16 02:17:26.028Z252.979° W
5 mins2025-01-16 12:08:26.028Z108.22° ESE2025-01-16 12:10:26.028Z84.754° E17.279°2025-01-16 12:13:26.028Z51.777° ENE
10 mins2025-01-16 13:50:26.028Z205.606° SW2025-01-16 13:54:26.028Z263.936° W41.104°2025-01-16 14:00:26.028Z2.038° NNE
|